Overview Statistics Trail Chart Weather Telemetry Raw packets
 

This is the latest recevied weather packets stored in our database for station/object K4MGY-13. If no packets are shown the sender has not sent any weather packets the latest 10 day(s).

<< 1 2 3 4 >>
Time Temp. Humidity Pressure Rain* Wind** Luminosity Snow
1777732983 15.56° C 47% 1016.9 hPa 0 mm - - -
1777732683 15.56° C 49% 1017.3 hPa 0 mm - - -
1777732383 15° C 47% 1017.3 hPa 0 mm - - -
1777732083 15° C 47% 1017.3 hPa 0 mm - - -
1777731783 14.44° C 49% 1017.3 hPa 0 mm - - -
1777731483 13.89° C 49% 1016.9 hPa 0 mm - - -
1777731153 13.33° C 54% 1017.5 hPa 0 mm - - -
1777730823 12.78° C 53% 1017.4 hPa 0 mm - - -
1777730493 12.78° C 56% 1017.6 hPa 0 mm - - -
1777730194 12.22° C 57% 1017.5 hPa 0 mm - - -
1777730163 12.22° C 57% 1017.5 hPa 0 mm - - -
1777729833 12.22° C 61% 1017.5 hPa 0 mm - - -
1777729533 11.67° C 59% 1017.5 hPa 0 mm - - -
1777729234 11.67° C 61% 1017.5 hPa 0 mm - - -
1777728933 11.67° C 66% 1017.5 hPa 0 mm - - -
1777728632 11.11° C 63% 1017.5 hPa 0 mm - - -
1777728333 11.11° C 64% 1017.5 hPa 0 mm - - -
1777728003 10.56° C 65% 1017.6 hPa 0 mm - - -
1777727673 10.56° C 67% 1017.5 hPa 0 mm - - -
1777727376 10.56° C 66% 1017.3 hPa 0 mm - - -
1777727073 10° C 67% 1017.5 hPa 0 mm - - -
1777726443 10° C 69% 1017.7 hPa 0 mm - - -
1777726143 9.44° C 71% 1017.3 hPa 0 mm - - -
1777725814 9.44° C 69% 1017.6 hPa 0 mm - - -
1777725483 9.44° C 69% 1017.4 hPa 0 mm - - -

* Rain latest hour (hover to see other rain measurements)
** Current wind speed in m/s (hover to see current wind gust speed)